Regional Weather Roundup
Issued by NWS Green Bay, WI

Home | Current Version | Previous Version | Text Only | Print | Product List | Glossary On
Versions: 1 2 3 4 5 6 7 8 9 10 11 12 13 14 15 16 17 18 19 20 21 22 23 24 25 26 27 28 29 30 31 32 33 34 35 36 37 38 39 40 41 42 43 44 45 46 47 48 49 50
000
ASUS43 KGRB 250910
RWRGRB

NORTH-CENTRAL AND NORTHEAST WISCONSIN REGIONAL WEATHER ROUNDUP
NATIONAL WEATHER SERVICE GREEN BAY WI
300 AM CST SUN JAN 25 2015

WIZ005-009-010>012-018-019-251000-
NORTH CENTRAL WISCONSIN

CITY           SKY/WX    TMP DP  RH WIND       PRES   REMARKS
IRONWOOD       CLOUDY    12   7  79 E5        29.86R WCI   4
MANITOWISH WTR MOCLDY    11   7  84 CALM      29.84R
ARBOR VITAE    MOCLDY    14   9  79 CALM      29.83R
EAGLE RIVER    CLOUDY    14   7  73 NE5       29.82S WCI   7
LAND O LAKES   CLOUDY    12   9  89 N3        29.84S
RHINELANDER    CLOUDY    14   7  73 NE8       29.83R WCI   3
PHILLIPS       CLOUDY    14   9  79 NE8       29.83R WCI   3
ANTIGO         CLOUDY    16  11  81 NE12      29.82R WCI   3
TOMAHAWK       CLOUDY    14   8  76 NE7       29.83R WCI   4
MERRILL        CLOUDY    20  14  77 NE13      29.82R WCI   7
$$

WIZ013-073-251000-
NORTHEAST WISCONSIN

CITY           SKY/WX    TMP DP  RH WIND       PRES   REMARKS
IRON MOUNTAIN  LGT SNOW  16  10  77 N3        29.85R
MARINETTE      CLOUDY    21  10  63 NE12      29.87R WCI   9
OCONTO         CLOUDY    21  12  69 MISG      29.87R
$$

WIZ017-030-035>037-045-251000-
CENTRAL WISCONSIN

CITY           SKY/WX    TMP DP  RH WIND       PRES   REMARKS
MEDFORD        CLOUDY    21  15  79 NE12      29.79R WCI   9
WAUSAU         CLOUDY    22  14  71 NE14      29.79R WCI   9
MOSINEE        CLOUDY    25  21  86 E14       29.79R
MARSHFIELD     CLOUDY    28  23  81 E14G21    29.76R
WISC RAPIDS    CLOUDY    26  19  74 E17G23    29.79R
STEVENS POINT  CLOUDY    22  17  80 E10       29.80R
WAUPACA        CLOUDY    24  15  68 NE10      29.83R
SHAWANO        CLOUDY    22  14  70 NE13      29.86R
CLINTONVILLE   CLOUDY    21  14  73 NE12G18   29.84S WCI   9
$$

WIZ038-039-048-051-251000-
FOX VALLEY

CITY           SKY/WX    TMP DP  RH WIND       PRES   REMARKS
NWS GREEN BAY  CLOUDY    21  14  74 NE21      29.85R WCI   5
APPLETON       CLOUDY    21  14  73 NE17G28   29.82R WCI   7
OSHKOSH        CLOUDY    22  15  75 NE18      29.81R WCI   7
FOND DU LAC    CLOUDY    25  18  74 NE12G23   29.80R
$$

WIZ022-050-052-251000-
EAST CENTRAL WISCONSIN

CITY           SKY/WX    TMP DP  RH WIND       PRES   REMARKS
STURGEON BAY   CLOUDY    19  10  68 N14       29.86S WCI   6
MANITOWOC      CLOUDY    23  18  81 N14       29.82R
SHEBOYGAN      CLOUDY    26  20  77 NE18      29.79R
$$

LMZ563-521-522-541>543-251000-
LAKESHORE

STATION/POSITION TIME  TEMP    WIND        PRES    VSBY  WAVE
                       AIR SEA DIR/SP/G                  HT/PER
                 (UTC) (F)     (DEG/KT/KT) (MB)    (MI)  (FT/S)
SHEBOYGAN LKSHOR 0900   28      20/ 26/ 29 1009.6R
KEWAUNEE LKSHORE 0900   22      10/ 10/ 15 1009.5R
NORTHPORT PIER   0900   20      10/ 13/ 19 1011.9S
SISTER BAY LKSHO 0800   20      20/  8/ 13   N/A
CHAMBERS ISLAND  0900   20      10/ 17/ 22 1011.9S
MENOMINEE LKSHOR 0900   20      30/ 21/ 23 1012.3S
$$


USA.gov is the U.S. government's official web portal to all federal, state and local government web resources and services.